Presure
187 175 141 171 254 414 455 471 470 451 451 456 345 296 292 258 357 332 281 262 270 263 280 268 254 234 229 215 215 216 211 218 224 216 222 235 241 252 252 262 167 179 161 173 123 116 130
216 214 167 233 257 411 429 497 460 441 418 421 417 375 367 374 281 305 340 298 275 242 246 244 281 258 231 230 221 235 183 221 213 219 226 232 223 228 240 257 266 266 256 188 157 119 133
165 225 186 235 254 440 462 443 437 427 415 397 411 390 375 373 376 381 280 313 275 250 243 234 228 265 269 247 230 216 223 208 226 209 223 196 228 236 226 231 244 245 251 261 171 277 134
247 171 179 229 196 291 468 441 413 413 407 392 395 403 435 376 377 389 389 308 285 275 266 242 243 243 241 269 239 228 223 225 216 227 215 226 217 227 231 238 237 223 257 251 135 246 257
223 222 174 177 225 266 444 360 258 418 405 396 378 386 398 464 477 455 422 405 403 285 256 256 256 237 262 266 273 254 244 235 223 225 225 227 202 214 228 237 246 252 245 250 237 219 135
211 208 179 183 226 239 279 464 358 418 425 402 400 391 377 392 415 420 401 380 368 426 330 274 262 245 247 247 259 281 266 250 237 231 233 230 233 233 242 248 244 239 240 263 257 165 284
224 156 185 179 211 234 248 367 367 435 435 411 389 387 391 372 373 395 373 361 371 390 315 307 301 278 254 251 253 277 274 262 261 256 239 239 240 243 240 242 242 243 248 249 267 158 148
204 226 184 178 186 189 232 225 380 250 386 387 380 368 382 418 365 356 386 371 383 330 303 300 301 306 290 289 288 273 278 273 268 264 260 259 258 268 266 263 272 283 287 286 291 132 213
193 215 178 241 182 215 133 233 269 358 341 347 367 349 356 349 353 348 361 362 350 323 288 291 299 293 286 283 298 285 282 282 277 272 275 282 286 280 276 275 271 275 281 316 349 379 254
202 194 174 192 179 218 199 227 238 197 350 334 255 366 350 347 336 350 354 340 342 332 297 272 282 294 293 286 289 295 298 293 289 286 276 276 280 279 287 330 331 345 366 390 373 311 307
200 184 191 212 190 210 229 203 227 238 233 346 333 292 362 356 363 347 339 347 340 352 321 285 286 257 281 288 292 294 303 307 309 323 331 326 326 340 347 361 385 362 351 344 327 156 310
165 190 195 210 221 185 181 182 206 211 234 258 346 338 308 302 344 342 346 354 337 338 344 321 310 301 300 297 303 309 311 323 329 327 332 345 354 379 355 343 333 270 307 301 317 212 280
175 184 208 201 163 205 164 285 167 141 218 208 218 357 348 331 295 302 316 337 348 351 350 348 344 319 313 314 312 295 309 330 331 353 372 358 330 327 208 204 298 200 313 323 326 140 144
173 144 186 182 192 159 156 160 165 160 157 162 165 161 163 357 342 320 284 232 302 322 327 340 360 367 365 367 372 374 391 379 352 325 331 295 293 291 290 303 350 309 204 257 228 303 147
178 163 176 192 198 190 191 185 155 168 177 154 154 182 164 371 164 152 277 309 286 225 292 290 316 316 322 325 318 325 307 317 312 297 291 283 295 370 331 317 302 291 288 288 279 281 287
186 157 175 195 183 171 197 214 143 144 140 137 148 126 132 133 132 147 155 154 155 159 172 233 240 299 299 304 249 303 290 289 286 283 339 366 316 260 233 224 224 219 212 186 201 197 194
179 164 153 190 147 185 173 171 138 132 141 150 144 142 136 131 182 231 170 293 292 142 141 143 153 157 161 181 265 173 273 259 203 205 143 203 210 205 281 202 179 195 155 189 160 154 151
179 186 174 176 169 180 184 193 138 134 127 138 136 139 141 159 172 199 255 374 235 267 357 143 176 172 144 140 142 144 154 151 158 158 277 160 271 162 151 141 151 156 167 263 166 167 252
176 185 163 175 175 172 172 184 177 141 123 131 140 134 216 219 167 155 172 230 321 366 350 334 202 316 315 184 263 206 169 169 169 169 145 156 148 144 145 145 252 264 268 260 266 244 269
175 174 181 191 171 158 177 185 183 181 129 131 159 135 134 127 208 173 158 149 181 226 185 308 315 250 173 296 289 179 225 157 154 151 156 131 158 153 135 157 266 205 254 171 245 201 263
155 189 172 180 182 170 176 196 173 195 137 176 137 195 135 133 126 239 243 208 151 155 232 156 180 324 314 298 293 267 261 126 133 147 275 202 271 265 140 173 261 140 211 201 140 146 137
177 169 183 181 180 193 158 179 207 172 174 147 183 132 133 140 126 125 154 250 160 154 149 204 199 231 241 314 308 295 146 132 119 292 137 284 123 274 270 272 255 138 244 154 201 156 164
185 171 185 172 183 184 167 191 167 197 149 142 127 138 136 137 137 134 128 131 180 249 215 215 192 151 215 221 178 224 300 286 261 278 247 273 180 284 195 266 243 270 282 266 258 261 241
161 166 161 179 163 184 185 168 191 153 174 135 145 126 133 130 137 137 132 137 189 166 230 256 208 172 179 177 151 220 198 213 239 240 285 305 247 215 306 267 215 251 272 278 271 274 251
167 157 171 152 175 163 177 181 193 184 188 199 172 198 151 171 132 195 141 140 141 133 130 233 162 254 213 197 214 193 142 194 176 184 212 153 191 264 181 295 214 296 279 224 156 172 236
162 173 177 181 153 183 174 180 160 194 168 194 194 173 169 178 119 129 135 138 138 141 131 132 133 221 232 153 212 141 219 207 206 198 201 166 195 189 199 181 240 189 379 233 321 188 316
142 145 151 176 166 183 167 181 172 181 183 165 190 183 193 182 159 145 147 164 130 128 134 131 233 222 134 220 235 246 244 247 220 202 196 203 200 161 142 201 187 207 210 201 172 238 243
166 173 163 154 146 171 180 176 169 182 182 181 187 198 186 183 190 184 117 186 113 149 149 133 171 186 135 130 224 222 224 241 236 235 237 242 229 228 224 193 202 202 210 199 203 210 206
175 169 146 154 139 168 172 174 171 170 177 177 179 189 187 169 203 197 185 179 165 173 225 128 140 131 119 120 132 133 138 225 207 224 227 234 230 237 241 234 242 229 187 195 196 192 193
Wind_Speed
52 57 40 57 102 83 60 42 29 22 24 24 52 68 63 66 60 73 98 89 92 87 97 97 111 107 106 102 98 96 88 89 89 87 86 88 86 82 83 84 73 86 78 80 55 46 55
76 72 63 94 107 85 66 37 29 17 13 13 38 58 70 72 70 70 72 97 93 81 81 84 97 111 110 113 101 105 77 95 86 88 91 91 87 86 86 83 83 87 93 81 68 55 59
53 82 62 98 110 81 52 47 35 21 14 11 24 51 60 65 67 64 81 77 87 84 84 79 80 96 110 114 108 97 100 89 98 82 91 76 89 90 85 85 87 86 88 89 57 90 62
113 56 61 95 77 124 49 44 41 32 22 15 9 9 14 61 64 69 68 83 84 84 92 83 87 88 91 105 113 106 103 103 90 95 81 90 79 87 88 90 86 76 90 90 54 81 88
103 70 61 67 94 119 69 88 33 34 23 13 17 18 18 12 19 26 34 36 53 82 84 84 90 89 95 92 94 113 109 106 96 97 94 92 73 82 85 89 91 93 87 88 83 71 55
96 76 54 65 94 112 126 40 77 37 27 21 23 22 20 32 30 21 22 22 22 27 56 86 91 93 95 94 94 88 104 106 107 101 100 96 97 91 95 97 94 88 87 92 93 60 90
119 52 67 53 74 106 116 99 93 36 32 30 36 30 19 24 20 25 19 16 20 28 55 57 70 87 95 97 89 84 90 97 97 101 100 97 95 98 96 94 93 90 93 93 94 46 47
97 123 56 55 54 62 105 95 88 60 63 53 50 50 47 29 47 42 31 31 30 53 57 58 59 59 67 71 75 85 83 90 90 93 93 95 93 93 93 93 90 87 83 81 80 61 56
86 111 64 94 52 76 34 106 126 89 85 69 60 62 49 41 43 38 41 43 43 64 58 56 56 61 66 68 67 77 79 84 85 81 81 81 80 73 71 72 69 74 75 71 65 58 46
95 78 44 67 56 84 65 102 113 76 78 76 76 51 50 43 41 36 38 41 37 55 68 37 52 56 59 60 63 66 71 77 77 75 66 64 67 69 73 62 57 56 53 38 34 32 31
92 63 64 101 58 67 93 74 105 111 97 67 67 69 53 48 44 33 31 28 28 32 62 36 47 26 42 48 52 54 61 64 66 64 60 57 55 52 48 43 29 23 21 18 14 43 20
51 82 85 105 113 54 52 53 85 87 105 113 59 56 57 58 49 44 37 26 20 20 20 44 58 56 57 53 53 55 53 55 56 50 51 47 38 23 16 13 13 18 13 15 11 25 11
63 80 93 85 41 93 45 108 56 34 88 78 74 46 47 46 48 50 47 37 29 20 14 23 32 58 45 49 36 20 21 36 36 37 22 15 13 14 21 22 16 23 21 28 32 32 33
65 30 77 57 72 37 43 38 41 40 41 46 49 48 42 38 38 37 38 49 38 31 28 23 15 16 24 26 25 27 20 17 16 16 15 19 20 19 18 14 22 31 19 24 18 35 29
65 42 61 82 80 61 64 53 33 42 48 39 40 57 48 34 44 40 33 33 30 42 28 27 24 23 20 19 20 21 24 25 25 24 23 21 17 14 30 44 43 40 40 38 36 32 39
64 49 61 74 69 44 70 94 26 29 30 28 34 19 21 27 27 35 29 35 36 39 39 28 26 25 27 29 30 31 27 26 24 22 22 26 38 33 35 30 31 27 30 26 26 24 25
59 49 30 70 29 71 43 40 24 23 27 28 28 24 28 23 37 37 31 42 41 22 24 25 27 27 27 26 25 10 22 19 20 27 25 25 24 25 48 19 14 20 18 21 16 22 27
52 53 56 60 41 64 69 68 18 21 21 24 25 26 27 31 33 56 87 50 36 39 42 10 26 24 21 21 19 20 20 21 18 17 38 13 42 17 18 25 17 18 10 35 17 23 17
48 58 43 55 53 51 40 63 39 21 16 20 19 18 53 62 31 28 33 70 50 53 59 61 29 54 53 23 37 24 17 16 15 15 20 15 19 20 19 15 30 33 39 33 36 2 31
50 49 53 65 47 30 52 46 57 44 12 13 22 15 17 15 50 34 27 21 40 67 36 62 53 34 18 46 43 17 24 13 12 14 11 13 11 14 18 9 37 25 31 16 4 13 27
40 57 44 48 53 38 42 66 39 65 7 48 10 57 13 15 11 65 60 52 24 27 64 26 30 47 46 43 40 28 26 11 13 10 31 14 34 32 16 10 33 21 6 9 23 15 25
48 41 47 47 47 62 18 49 76 30 36 10 56 6 8 14 8 9 19 64 22 24 21 43 42 60 58 41 38 35 13 15 7 27 12 26 11 26 35 37 11 28 25 11 9 15 19
55 43 54 41 50 51 38 60 27 61 11 2 3 3 4 8 8 7 7 10 28 53 49 47 33 18 45 50 18 41 35 22 16 20 5 18 5 15 6 23 17 25 32 22 14 20 8
36 35 36 43 35 50 53 36 61 8 43 10 5 6 3 1 6 7 4 8 25 21 51 50 38 24 25 22 14 43 33 36 46 19 30 10 2 2 15 11 6 11 14 25 22 33 9
38 36 38 30 42 35 42 46 62 51 54 63 35 48 20 29 6 51 9 10 10 2 3 43 17 44 34 29 33 24 7 20 18 14 31 1 17 32 8 4 5 3 1 5 8 13 25
41 43 44 45 32 49 39 46 28 65 32 63 58 36 25 41 14 9 10 10 8 11 4 2 3 38 37 14 26 8 26 23 21 18 20 10 16 13 16 5 28 6 2 1 5 9 7
24 34 31 42 39 50 36 47 37 52 52 33 54 39 44 36 15 19 13 11 13 12 12 10 31 26 9 31 32 31 30 30 22 18 16 16 14 6 8 17 12 19 19 13 2 19 20
49 50 42 43 24 41 51 42 39 54 54 48 54 64 44 32 46 34 13 43 9 18 20 17 24 31 13 10 26 28 26 27 23 22 22 23 18 17 15 12 11 13 13 11 11 12 12
57 49 33 41 23 43 42 48 42 41 44 42 47 56 44 25 63 36 43 39 15 29 64 18 22 15 12 11 19 20 22 21 15 17 16 17 16 19 18 16 16 14 14 12 11 12 12
Wind_Direction
345 338 339 337 352 346 344 332 322 307 293 244 259 268 259 256 241 240 240 247 239 242 237 236 235 238 237 245 243 245 244 243 245 245 247 247 247 248 249 249 237 237 239 239 227 223 233
3 0 345 1 359 357 356 357 348 336 308 258 228 230 243 247 245 238 234 232 233 239 236 236 232 233 237 237 241 237 237 244 246 249 248 247 248 249 251 252 252 252 250 242 235 232 227
349 10 349 6 6 4 3 4 10 4 353 320 242 229 235 244 250 250 238 229 229 236 239 236 236 235 233 235 239 242 243 245 242 245 247 239 251 250 253 253 253 253 254 255 245 256 226
13 350 351 10 1 12 4 5 5 6 0 348 337 282 281 246 249 246 245 232 228 229 232 236 234 237 239 233 234 236 240 241 245 246 248 248 251 254 253 254 254 251 256 257 236 257 255
14 3 354 355 16 14 14 17 31 14 23 20 10 27 18 327 221 206 221 231 236 225 233 231 228 235 232 231 231 234 235 239 244 246 247 250 249 242 255 257 257 256 259 260 258 247 227
14 11 1 2 20 19 20 18 24 18 23 34 43 34 61 61 69 134 156 192 198 196 199 226 225 230 231 234 233 235 233 235 238 243 245 250 252 255 255 256 259 262 263 262 262 241 263
15 8 12 3 26 22 20 26 30 22 35 66 63 48 61 86 96 100 152 145 158 162 186 206 220 221 227 233 234 233 233 235 238 241 244 248 253 255 258 261 261 259 261 261 262 215 215
16 16 10 11 13 16 26 25 33 30 38 44 60 62 68 81 84 79 102 112 129 166 183 200 210 211 216 221 225 229 233 236 239 241 245 247 253 255 257 259 260 263 264 263 265 220 252
15 18 15 19 12 23 29 27 26 35 36 38 42 45 57 61 74 79 90 112 133 168 189 203 208 211 216 222 226 229 233 237 240 242 245 249 252 255 258 259 259 260 261 266 268 274 244
17 16 13 18 14 22 32 27 25 32 36 37 39 49 48 53 52 64 101 117 138 171 185 214 211 215 218 223 227 231 235 241 245 247 251 256 260 262 263 269 266 267 270 261 264 252 255
16 17 18 21 24 20 27 36 27 26 32 36 40 33 57 60 62 75 82 111 136 157 187 211 214 192 228 230 235 241 244 246 248 254 257 262 267 269 265 266 251 253 244 245 246 218 255
18 18 18 22 22 26 31 33 34 32 26 31 38 40 35 43 62 66 74 92 111 139 164 199 210 218 226 232 239 243 246 251 252 263 268 268 265 249 230 212 205 204 204 212 194 191 148
13 13 23 24 22 26 29 26 33 46 33 33 39 38 40 46 42 56 62 73 83 108 145 174 196 219 228 236 244 215 237 259 260 262 242 208 184 172 189 190 180 201 146 130 115 220 223
12 25 15 21 20 28 37 36 40 48 46 48 50 55 59 38 48 60 51 58 66 75 86 96 137 195 224 240 242 245 229 198 175 150 150 151 156 163 166 156 119 129 185 138 172 113 217
9 15 15 14 23 24 25 28 42 38 41 50 49 46 56 50 56 64 61 63 62 63 83 89 100 109 119 125 122 128 124 127 129 136 144 154 150 147 123 118 117 119 118 120 120 120 111
8 13 14 18 17 21 24 28 48 51 56 51 55 66 65 85 71 41 60 70 75 75 70 81 92 111 111 112 113 118 131 138 141 142 137 125 119 131 136 141 147 151 158 185 173 183 186
10 13 22 16 27 18 19 22 52 57 50 53 60 56 68 64 39 51 49 58 62 96 107 105 93 85 84 91 113 146 128 114 134 141 161 127 123 127 128 143 167 157 203 175 228 225 229
7 10 8 12 15 17 14 22 52 62 68 49 57 55 54 46 36 46 42 60 58 59 65 128 63 69 129 143 142 139 116 130 117 124 118 126 125 146 162 195 185 190 241 151 254 255 164
5 14 6 8 11 11 19 12 22 48 85 58 42 54 32 30 38 53 42 45 63 76 84 90 72 94 95 77 96 91 92 101 108 115 169 149 178 186 189 190 150 151 151 161 154 140 147
357 2 8 9 9 9 9 18 17 19 80 66 29 54 58 65 30 39 44 62 51 48 38 57 69 78 72 84 81 87 102 118 142 151 149 220 176 196 220 201 158 180 167 222 156 195 168
352 354 4 7 7 8 7 9 16 14 62 18 42 29 58 58 81 30 33 34 56 52 52 48 41 69 75 72 74 88 95 212 203 181 123 162 141 144 238 183 168 244 159 204 224 220 228
342 346 355 360 2 1 2 1 6 11 17 12 12 63 64 41 87 84 30 30 45 31 54 45 52 54 50 65 67 66 200 213 255 126 215 134 292 157 167 172 148 237 187 257 105 231 227
330 339 343 351 357 359 355 359 1 5 317 333 205 58 17 24 11 51 83 72 34 35 23 29 41 40 58 57 51 58 67 75 70 55 115 73 360 170 356 177 79 192 192 213 228 208 144
328 331 338 345 342 351 354 351 360 320 357 262 306 243 265 257 334 352 3 17 30 30 27 37 25 28 40 49 30 55 50 56 54 57 59 53 34 258 197 74 29 52 215 212 231 218 305
318 321 329 331 340 337 346 352 353 358 356 1 354 10 350 11 279 11 320 328 340 50 104 21 29 39 26 28 36 35 27 45 49 46 55 269 45 52 44 286 20 66 101 268 298 267 254
309 315 319 327 325 331 337 345 337 348 345 355 356 350 355 359 289 265 281 292 304 315 281 329 14 20 22 1 23 357 39 38 45 35 46 12 44 31 39 38 52 52 275 9 257 314 265
300 306 309 318 315 326 326 336 335 341 345 338 351 352 0 355 311 344 317 346 279 280 289 289 12 10 325 15 22 35 40 39 25 15 10 24 25 327 297 25 7 32 33 29 350 54 60
294 303 300 302 306 315 322 327 326 332 336 339 343 347 350 353 352 342 271 358 286 311 299 282 357 5 289 289 4 12 19 31 35 38 38 33 19 15 17 349 11 12 9 359 12 21 13
293 296 300 298 283 303 311 317 318 317 326 331 332 338 345 329 348 356 341 342 320 345 8 305 273 325 299 301 289 290 293 3 358 12 19 27 30 25 18 11 7 359 317 315 322 316 318